| time (UTC) | temp F | wind direction | speed MPH | gust MPH | rain 1hr in | rain 24hr in | rain mn in | humidity % | barometer mb |
| 20260505204832 | 71 | 227 | 0.0 | 0.0 | 0.00 | 0.00 | 0.00 | 41 | 1014.2 |
| 20260505203333 | 70 | 103 | 0.0 | 0.0 | 0.00 | 0.00 | 0.00 | 40 | 1014.3 |
| 20260505201832 | 69 | 237 | 0.0 | 3.0 | 0.00 | 0.00 | 0.00 | 41 | 1014.5 |
| 20260505201023 | 68 | 286 | 0.0 | 4.0 | 0.00 | 0.00 | 0.00 | 45 | 1014.7 |
| 20260505194833 | 67 | 262 | 0.0 | 4.0 | 0.00 | 0.00 | 0.00 | 49 | 1014.8 |
| 20260505193333 | 66 | 296 | 0.0 | 4.0 | 0.00 | 0.00 | 0.00 | 52 | 1014.9 |
| 20260505191832 | 65 | 339 | 0.0 | 3.0 | 0.00 | 0.00 | 0.00 | 52 | 1015.0 |
| 20260505190332 | 66 | 276 | 0.0 | 2.0 | 0.00 | 0.00 | 0.00 | 52 | 1015.1 |
| 20260505184830 | 64 | 293 | 0.0 | 3.0 | 0.00 | 0.00 | 0.00 | 56 | 1015.3 |
| 20260505183330 | 63 | 189 | 0.0 | 2.0 | 0.00 | 0.00 | 0.00 | 57 | 1015.4 |
| 20260505181830 | 63 | 185 | 0.0 | 2.0 | 0.00 | 0.00 | 0.00 | 57 | 1015.5 |
| 20260505180331 | 62 | 204 | 0.0 | 6.0 | 0.00 | 0.00 | 0.00 | 58 | 1015.6 |
| 20260505174830 | 61 | 247 | 0.0 | 2.0 | 0.00 | 0.00 | 0.00 | 60 | 1015.6 |
| 20260505173328 | 61 | 276 | 0.0 | 1.0 | 0.00 | 0.00 | 0.00 | 62 | 1015.7 |
| 20260505171828 | 60 | 165 | 0.0 | 1.0 | 0.00 | 0.00 | 0.00 | 63 | 1015.7 |
| 20260505170325 | 60 | 308 | 0.0 | 1.0 | 0.00 | 0.00 | 0.00 | 65 | 1015.7 |
| 20260505164826 | 59 | 238 | 0.0 | 2.0 | 0.00 | 0.00 | 0.00 | 66 | 1015.7 |
| 20260505163326 | 59 | 263 | 0.0 | 1.0 | 0.00 | 0.00 | 0.00 | 68 | 1015.8 |
| 20260505161826 | 58 | 274 | 0.0 | 1.0 | 0.00 | 0.00 | 0.00 | 67 | 1015.9 |
| 20260505160326 | 58 | 278 | 0.0 | 0.0 | 0.00 | 0.00 | 0.00 | 68 | 1016.0 |
| 20260505153328 | 58 | 258 | 0.0 | 0.0 | 0.00 | 0.00 | 0.00 | 69 | 1015.9 |
| 20260505151825 | 57 | 248 | 0.0 | 4.0 | 0.00 | 0.00 | 0.00 | 70 | 1015.8 |
| 20260505150328 | 57 | 290 | 0.0 | 0.0 | 0.00 | 0.00 | 0.00 | 70 | 1015.6 |
| 20260505140326 | 56 | 234 | 0.0 | 0.0 | 0.00 | 0.00 | 0.00 | 72 | 1015.2 |
| 20260505124818 | 56 | 234 | 0.0 | 0.0 | 0.00 | 0.00 | 0.00 | 72 | 1014.7 |
| 20260505123320 | 56 | 234 | 0.0 | 0.0 | 0.00 | 0.00 | 0.00 | 72 | 1014.6 |
| 20260505121818 | 56 | 234 | 0.0 | 0.0 | 0.00 | 0.00 | 0.00 | 72 | 1014.5 |
| 20260505120316 | 56 | 225 | 0.0 | 0.0 | 0.00 | 0.00 | 0.00 | 72 | 1014.5 |
| 20260505114814 | 56 | 214 | 0.0 | 0.0 | 0.00 | 0.00 | 0.00 | 71 | 1014.3 |
| 20260505114021 | 56 | 246 | 0.0 | 1.0 | 0.00 | 0.00 | 0.00 | 71 | 1014.3 |
| 20260505111811 | 57 | 188 | 0.0 | 1.0 | 0.00 | 0.00 | 0.00 | 71 | 1014.2 |
| 20260505111016 | 57 | 214 | 0.0 | 1.0 | 0.00 | 0.00 | 0.00 | 71 | 1014.2 |
| 20260505100301 | 57 | 214 | 0.0 | 0.0 | 0.00 | 0.00 | 0.00 | 70 | 1014.0 |
| 20260505094758 | 57 | 215 | 0.0 | 0.0 | 0.00 | 0.00 | 0.00 | 70 | 1014.0 |
| 20260505093259 | 57 | 216 | 0.0 | 0.0 | 0.00 | 0.00 | 0.00 | 70 | 1014.2 |
| 20260505092457 | 57 | 216 | 0.0 | 0.0 | 0.00 | 0.00 | 0.00 | 69 | 1014.3 |
| 20260505090256 | 58 | 265 | 0.0 | 0.0 | 0.00 | 0.00 | 0.00 | 69 | 1014.2 |
| 20260505084753 | 58 | 279 | 0.0 | 0.0 | 0.00 | 0.00 | 0.00 | 70 | 1014.3 |
| 20260505083252 | 58 | 285 | 0.0 | 0.0 | 0.00 | 0.00 | 0.00 | 70 | 1014.3 |
| 20260505081745 | 58 | 290 | 0.0 | 0.0 | 0.00 | 0.00 | 0.00 | 70 | 1014.5 |
| 20260505080243 | 58 | 282 | 0.0 | 0.0 | 0.00 | 0.00 | 0.00 | 70 | 1014.5 |
| 20260505074742 | 58 | 262 | 0.0 | 0.0 | 0.00 | 0.00 | 0.00 | 70 | 1014.5 |
| 20260505073239 | 58 | 286 | 0.0 | 0.0 | 0.00 | 0.00 | 0.00 | 70 | 1014.4 |
| 20260505071739 | 58 | 283 | 0.0 | 0.0 | 0.00 | 0.00 | 0.00 | 70 | 1014.4 |
| 20260505070947 | 58 | 285 | 0.0 | 0.0 | 0.00 | 0.00 | 0.00 | 70 | 1014.3 |
| 20260505064740 | 58 | 283 | 0.0 | 1.0 | 0.00 | 0.00 | 0.00 | 69 | 1014.2 |
| 20260505063239 | 58 | 214 | 0.0 | 1.0 | 0.00 | 0.00 | 0.00 | 69 | 1014.2 |
| 20260505061740 | 58 | 193 | 0.0 | 0.0 | 0.00 | 0.00 | 0.00 | 70 | 1014.2 |
| 20260505060242 | 58 | 223 | 0.0 | 1.0 | 0.00 | 0.00 | 0.00 | 69 | 1014.0 |
| 20260505054740 | 58 | 262 | 0.0 | 1.0 | 0.00 | 0.00 | 0.00 | 69 | 1014.0 |
| 20260505053241 | 58 | 283 | 0.0 | 1.0 | 0.00 | 0.00 | 0.00 | 69 | 1013.8 |
| 20260505051739 | 58 | 318 | 0.0 | 1.0 | 0.00 | 0.00 | 0.00 | 68 | 1013.6 |
| 20260505050237 | 59 | 285 | 0.0 | 2.0 | 0.00 | 0.00 | 0.00 | 67 | 1013.5 |
| 20260505041739 | 61 | 299 | 0.0 | 0.0 | 0.00 | 0.00 | 0.00 | 64 | 1012.7 |
| 20260505040231 | 62 | 268 | 0.0 | 3.0 | 0.00 | 0.00 | 0.00 | 63 | 1012.4 |
| 20260505035417 | 62 | 286 | 0.0 | 2.0 | 0.00 | 0.00 | 0.00 | 61 | 1012.1 |
| 20260505033228 | 64 | 292 | 0.0 | 2.0 | 0.00 | 0.00 | 0.00 | 60 | 1011.8 |
| 20260505031729 | 65 | 287 | 0.0 | 2.0 | 0.00 | 0.00 | 0.00 | 58 | 1011.3 |
| 20260505030228 | 66 | 249 | 0.0 | 8.0 | 0.00 | 0.00 | 0.00 | 56 | 1011.0 |
| 20260505024728 | 67 | 295 | 1.0 | 10.0 | 0.00 | 0.00 | 0.00 | 54 | 1010.8 |
| 20260505023227 | 68 | 260 | 1.0 | 10.0 | 0.00 | 0.00 | 0.00 | 53 | 1010.6 |
| 20260505020227 | 70 | 285 | 2.0 | 9.0 | 0.00 | 0.00 | 0.00 | 50 | 1010.3 |
| 20260505015428 | 72 | 273 | 1.0 | 11.0 | 0.00 | 0.00 | 0.00 | 48 | 1010.2 |
| 20260505013225 | 73 | 250 | 1.0 | 6.0 | 0.00 | 0.00 | 0.00 | 46 | 1010.0 |
| 20260505011725 | 74 | 276 | 1.0 | 7.0 | 0.00 | 0.00 | 0.00 | 45 | 1009.9 |
| 20260505010226 | 75 | 285 | 1.0 | 4.0 | 0.00 | 0.00 | 0.00 | 45 | 1009.7 |
| 20260505004722 | 76 | 245 | 1.0 | 13.0 | 0.00 | 0.00 | 0.00 | 43 | 1009.6 |
| 20260505003921 | 77 | 287 | 1.0 | 10.0 | 0.00 | 0.00 | 0.00 | 42 | 1009.2 |
| 20260505001721 | 77 | 210 | 1.0 | 8.0 | 0.00 | 0.01 | 0.00 | 42 | 1009.1 |
| 20260505000910 | 77 | 283 | 1.0 | 11.0 | 0.00 | 0.11 | 0.00 | 43 | 1009.1 |
| 20260504235413 | 77 | 279 | 1.0 | 8.0 | 0.00 | 0.12 | 0.00 | 43 | 1009.1 |
| 20260504233221 | 77 | 245 | 1.0 | 9.0 | 0.00 | 0.12 | 0.00 | 43 | 1009.3 |
| 20260504231720 | 77 | 268 | 1.0 | 8.0 | 0.00 | 0.12 | 0.00 | 42 | 1009.3 |
| 20260504230220 | 77 | 260 | 1.0 | 8.0 | 0.00 | 0.12 | 0.00 | 42 | 1009.5 |
| 20260504225414 | 78 | 262 | 1.0 | 12.0 | 0.00 | 0.12 | 0.00 | 41 | 1009.5 |
| 20260504223217 | 77 | 293 | 1.0 | 8.0 | 0.00 | 0.12 | 0.00 | 42 | 1009.8 |
| 20260504221719 | 76 | 252 | 1.0 | 10.0 | 0.00 | 0.12 | 0.00 | 43 | 1010.0 |
| 20260504220215 | 76 | 243 | 1.0 | 8.0 | 0.00 | 0.12 | 0.00 | 45 | 1010.2 |
| 20260504214715 | 75 | 300 | 1.0 | 10.0 | 0.00 | 0.12 | 0.00 | 45 | 1010.4 |
| 20260504213215 | 75 | 238 | 1.0 | 7.0 | 0.00 | 0.12 | 0.00 | 45 | 1010.6 |
| 20260504211716 | 74 | 227 | 0.0 | 9.0 | 0.00 | 0.12 | 0.00 | 47 | 1010.8 |
| 20260504210916 | 74 | 254 | 1.0 | 6.0 | 0.00 | 0.12 | 0.00 | 47 | 1011.1 |